QPF
0.15 0.12 0.13 0.13 0.14 0.14 0.10 0.08 0.07 0.05 0.05 0.04 0.04 0.06 0.09 0.10 0.12 0.14 0.15 0.14 0.14 0.13 0.15 0.16 0.17 0.16 0.15 0.19 0.19 0.14 0.09 0.09 0.06 0.04 0.04 0.05 0.04 0.04 0.05 0.05 0.05 0.04 0.04
0.11 0.09 0.10 0.11 0.13 0.11 0.10 0.10 0.09 0.06 0.05 0.04 0.04 0.06 0.09 0.11 0.13 0.14 0.15 0.16 0.15 0.18 0.20 0.16 0.16 0.17 0.18 0.20 0.15 0.09 0.08 0.06 0.06 0.06 0.07 0.07 0.06 0.06 0.06 0.05 0.04 0.04 0.04
0.09 0.09 0.08 0.11 0.14 0.11 0.12 0.12 0.10 0.09 0.07 0.06 0.06 0.05 0.07 0.10 0.11 0.12 0.17 0.20 0.19 0.20 0.19 0.16 0.14 0.16 0.20 0.19 0.11 0.07 0.07 0.06 0.05 0.06 0.06 0.06 0.06 0.06 0.07 0.06 0.04 0.04 0.05
0.09 0.13 0.14 0.15 0.15 0.11 0.12 0.12 0.11 0.13 0.12 0.09 0.07 0.06 0.07 0.09 0.15 0.19 0.16 0.20 0.22 0.18 0.16 0.15 0.15 0.15 0.16 0.13 0.10 0.09 0.08 0.07 0.06 0.04 0.04 0.05 0.05 0.04 0.05 0.06 0.07 0.07 0.06
0.08 0.10 0.12 0.13 0.14 0.15 0.16 0.16 0.14 0.13 0.16 0.16 0.13 0.11 0.11 0.11 0.13 0.13 0.14 0.19 0.23 0.24 0.21 0.15 0.15 0.15 0.14 0.12 0.13 0.12 0.09 0.06 0.05 0.03 0.03 0.05 0.06 0.04 0.05 0.06 0.06 0.09 0.09
0.06 0.09 0.11 0.12 0.12 0.14 0.16 0.15 0.15 0.13 0.12 0.13 0.13 0.13 0.14 0.11 0.12 0.13 0.14 0.15 0.27 0.28 0.21 0.14 0.14 0.15 0.15 0.11 0.11 0.12 0.11 0.08 0.05 0.04 0.05 0.04 0.04 0.05 0.06 0.08 0.07 0.08 0.09
0.08 0.09 0.12 0.13 0.13 0.12 0.12 0.12 0.12 0.13 0.11 0.11 0.11 0.11 0.12 0.10 0.10 0.11 0.11 0.13 0.19 0.19 0.17 0.14 0.15 0.15 0.13 0.12 0.11 0.14 0.14 0.10 0.05 0.03 0.04 0.04 0.03 0.03 0.06 0.07 0.08 0.08 0.07
0.07 0.08 0.10 0.13 0.14 0.11 0.11 0.12 0.12 0.10 0.09 0.08 0.08 0.09 0.10 0.10 0.10 0.09 0.10 0.14 0.16 0.16 0.14 0.14 0.15 0.15 0.15 0.13 0.13 0.20 0.17 0.09 0.05 0.03 0.03 0.04 0.03 0.03 0.05 0.06 0.06 0.06 0.07
0.07 0.08 0.10 0.11 0.11 0.10 0.12 0.14 0.11 0.08 0.08 0.08 0.07 0.08 0.09 0.09 0.10 0.09 0.11 0.13 0.16 0.17 0.16 0.14 0.14 0.15 0.15 0.14 0.19 0.28 0.20 0.09 0.05 0.04 0.03 0.04 0.04 0.04 0.06 0.07 0.08 0.07 0.07
0.07 0.08 0.08 0.09 0.10 0.09 0.10 0.12 0.10 0.08 0.08 0.07 0.06 0.08 0.13 0.13 0.13 0.10 0.10 0.12 0.14 0.17 0.18 0.16 0.13 0.11 0.14 0.16 0.23 0.18 0.11 0.07 0.05 0.04 0.05 0.04 0.04 0.06 0.06 0.06 0.08 0.07 0.07
0.06 0.06 0.06 0.07 0.08 0.09 0.09 0.09 0.08 0.08 0.09 0.11 0.17 0.24 0.22 0.15 0.11 0.09 0.09 0.12 0.15 0.18 0.24 0.20 0.17 0.14 0.16 0.16 0.15 0.11 0.08 0.06 0.03 0.03 0.06 0.05 0.06 0.06 0.05 0.06 0.06 0.05 0.06
0.05 0.05 0.06 0.06 0.06 0.06 0.06 0.07 0.07 0.05 0.10 0.15 0.22 0.21 0.15 0.11 0.10 0.09 0.09 0.12 0.15 0.20 0.20 0.21 0.26 0.21 0.17 0.16 0.16 0.11 0.08 0.05 0.03 0.03 0.05 0.06 0.06 0.08 0.09 0.09 0.08 0.07 0.07
0.04 0.05 0.06 0.06 0.05 0.03 0.04 0.05 0.05 0.04 0.05 0.07 0.08 0.08 0.08 0.08 0.09 0.09 0.10 0.13 0.16 0.20 0.19 0.19 0.28 0.29 0.22 0.19 0.19 0.13 0.09 0.07 0.05 0.04 0.05 0.05 0.04 0.07 0.11 0.12 0.11 0.13 0.12
0.05 0.05 0.04 0.04 0.04 0.03 0.04 0.04 0.04 0.03 0.02 0.03 0.03 0.04 0.04 0.05 0.06 0.08 0.11 0.12 0.14 0.16 0.15 0.16 0.23 0.26 0.23 0.18 0.16 0.11 0.09 0.08 0.06 0.06 0.06 0.03 0.03 0.05 0.09 0.12 0.13 0.12 0.11
0.06 0.05 0.04 0.04 0.03 0.04 0.04 0.04 0.03 0.03 0.01 0.01 0.01 0.01 0.02 0.04 0.06 0.07 0.09 0.09 0.10 0.13 0.13 0.15 0.19 0.24 0.21 0.14 0.13 0.12 0.10 0.08 0.06 0.06 0.05 0.04 0.04 0.05 0.07 0.10 0.13 0.11 0.09
0.05 0.04 0.04 0.04 0.03 0.04 0.04 0.04 0.03 0.02 0.01 0.01 0.01 0.01 0.03 0.04 0.07 0.08 0.08 0.09 0.08 0.09 0.12 0.16 0.17 0.19 0.18 0.12 0.10 0.10 0.08 0.06 0.05 0.05 0.05 0.05 0.05 0.06 0.09 0.09 0.09 0.09 0.08
0.03 0.03 0.04 0.04 0.03 0.03 0.03 0.03 0.02 0.02 0.02 0.01 0.01 0.02 0.02 0.03 0.07 0.09 0.09 0.11 0.11 0.10 0.11 0.10 0.11 0.11 0.11 0.09 0.08 0.07 0.07 0.08 0.08 0.07 0.05 0.06 0.04 0.04 0.07 0.08 0.08 0.08 0.08
0.02 0.03 0.05 0.04 0.03 0.02 0.02 0.02 0.01 0.02 0.01 0.01 0.01 0.01 0.02 0.03 0.05 0.07 0.08 0.09 0.10 0.11 0.12 0.12 0.12 0.09 0.08 0.07 0.07 0.07 0.08 0.08 0.07 0.05 0.04 0.04 0.05 0.05 0.05 0.05 0.07 0.08 0.12
0.02 0.05 0.09 0.07 0.06 0.03 0.03 0.03 0.02 0.02 0.01 0.01 0.01 0.01 0.03 0.04 0.04 0.06 0.07 0.08 0.08 0.11 0.13 0.11 0.11 0.10 0.08 0.07 0.05 0.06 0.06 0.07 0.05 0.03 0.02 0.03 0.04 0.06 0.08 0.06 0.06 0.08 0.12
0.02 0.05 0.08 0.11 0.14 0.10 0.07 0.05 0.04 0.02 0.02 0.02 0.02 0.04 0.04 0.03 0.03 0.04 0.06 0.08 0.07 0.10 0.12 0.10 0.09 0.08 0.06 0.05 0.04 0.05 0.05 0.05 0.04 0.03 0.02 0.02 0.03 0.04 0.06 0.06 0.07 0.08 0.10
0.00 0.02 0.04 0.11 0.19 0.18 0.17 0.13 0.08 0.05 0.04 0.04 0.03 0.03 0.03 0.04 0.04 0.05 0.05 0.07 0.08 0.09 0.11 0.09 0.07 0.07 0.05 0.05 0.05 0.06 0.05 0.04 0.04 0.03 0.02 0.03 0.04 0.03 0.03 0.05 0.06 0.09 0.12
0.00 0.01 0.02 0.06 0.12 0.15 0.20 0.20 0.15 0.07 0.04 0.04 0.05 0.04 0.04 0.04 0.05 0.05 0.06 0.07 0.07 0.07 0.08 0.07 0.07 0.06 0.04 0.05 0.06 0.07 0.07 0.06 0.05 0.03 0.02 0.02 0.03 0.03 0.02 0.03 0.06 0.10 0.12
0.00 0.00 0.01 0.02 0.04 0.04 0.08 0.10 0.10 0.07 0.06 0.05 0.04 0.04 0.04 0.03 0.04 0.05 0.04 0.04 0.05 0.04 0.05 0.06 0.05 0.05 0.06 0.05 0.06 0.07 0.07 0.07 0.06 0.06 0.04 0.02 0.02 0.03 0.03 0.04 0.05 0.06 0.08
0.00 0.01 0.01 0.01 0.02 0.01 0.02 0.02 0.02 0.02 0.05 0.08 0.09 0.06 0.05 0.04 0.04 0.06 0.06 0.05 0.05 0.03 0.04 0.04 0.04 0.05 0.05 0.06 0.05 0.06 0.06 0.07 0.08 0.07 0.06 0.03 0.03 0.03 0.03 0.03 0.04 0.05 0.06
0.00 0.00 0.00 0.01 0.01 0.01 0.01 0.01 0.01 0.01 0.01 0.03 0.06 0.11 0.11 0.10 0.08 0.10 0.09 0.06 0.06 0.05 0.04 0.05 0.06 0.05 0.04 0.05 0.07 0.07 0.06 0.06 0.07 0.07 0.05 0.05 0.04 0.03 0.02 0.02 0.04 0.05 0.04
0.00 0.00 0.00 0.00 0.01 0.01 0.00 0.01 0.01 0.01 0.02 0.02 0.03 0.05 0.10 0.16 0.20 0.19 0.17 0.10 0.06 0.06 0.06 0.06 0.06 0.03 0.03 0.04 0.05 0.05 0.05 0.05 0.07 0.08 0.06 0.05 0.05 0.03 0.02 0.02 0.02 0.03 0.04
MSLP
1004.22 1003.69 1003.53 1003.77 1004.32 1005.07 1005.88 1006.63 1007.26 1007.75 1008.11 1008.43 1008.76 1009.18 1009.70 1010.30 1010.95 1011.60 1012.19 1012.70 1013.13 1013.49 1013.83 1014.15 1014.48 1014.80 1015.09 1015.34 1015.52 1015.64 1015.71 1015.76 1015.84 1015.96 1016.15 1016.38 1016.63 1016.85 1017.02 1017.12 1017.15 1017.13 1017.12
1003.18 1002.48 1002.21 1002.41 1003.02 1003.89 1004.88 1005.85 1006.71 1007.40 1007.95 1008.41 1008.84 1009.32 1009.87 1010.48 1011.14 1011.78 1012.37 1012.88 1013.32 1013.70 1014.05 1014.39 1014.73 1015.06 1015.37 1015.63 1015.83 1015.96 1016.05 1016.12 1016.21 1016.36 1016.55 1016.79 1017.04 1017.26 1017.43 1017.52 1017.55 1017.53 1017.51
1001.87 1001.04 1000.72 1000.94 1001.63 1002.65 1003.85 1005.06 1006.15 1007.07 1007.80 1008.41 1008.94 1009.48 1010.05 1010.67 1011.31 1011.93 1012.52 1013.03 1013.48 1013.88 1014.25 1014.61 1014.97 1015.33 1015.65 1015.92 1016.13 1016.27 1016.37 1016.45 1016.56 1016.71 1016.91 1017.16 1017.41 1017.64 1017.82 1017.92 1017.96 1017.95 1017.94
1000.56 999.67 999.34 999.62 1000.42 1001.60 1003.00 1004.41 1005.72 1006.83 1007.74 1008.47 1009.10 1009.68 1010.27 1010.88 1011.50 1012.12 1012.69 1013.21 1013.67 1014.09 1014.49 1014.88 1015.27 1015.63 1015.96 1016.23 1016.44 1016.57 1016.67 1016.75 1016.86 1017.02 1017.23 1017.48 1017.75 1018.00 1018.19 1018.32 1018.38 1018.40 1018.40
999.52 998.65 998.37 998.73 999.64 1000.96 1002.50 1004.07 1005.53 1006.78 1007.81 1008.63 1009.32 1009.94 1010.54 1011.15 1011.77 1012.37 1012.95 1013.47 1013.96 1014.40 1014.83 1015.24 1015.64 1016.01 1016.33 1016.58 1016.76 1016.88 1016.96 1017.03 1017.13 1017.29 1017.51 1017.78 1018.06 1018.33 1018.56 1018.72 1018.81 1018.86 1018.90
999.01 998.21 998.01 998.46 999.46 1000.86 1002.48 1004.12 1005.64 1006.96 1008.04 1008.90 1009.63 1010.27 1010.89 1011.50 1012.12 1012.73 1013.31 1013.85 1014.36 1014.83 1015.27 1015.69 1016.09 1016.44 1016.74 1016.96 1017.11 1017.19 1017.24 1017.29 1017.38 1017.54 1017.76 1018.05 1018.36 1018.66 1018.91 1019.11 1019.24 1019.33 1019.39
999.16 998.47 998.38 998.90 999.94 1001.35 1002.95 1004.57 1006.06 1007.35 1008.40 1009.27 1010.00 1010.66 1011.29 1011.92 1012.55 1013.17 1013.77 1014.33 1014.85 1015.33 1015.78 1016.20 1016.57 1016.90 1017.16 1017.34 1017.44 1017.48 1017.50 1017.53 1017.61 1017.76 1018.00 1018.31 1018.64 1018.97 1019.26 1019.49 1019.65 1019.76 1019.84
999.98 999.43 999.44 1000.00 1001.02 1002.36 1003.85 1005.34 1006.71 1007.89 1008.88 1009.70 1010.41 1011.08 1011.73 1012.38 1013.04 1013.68 1014.29 1014.86 1015.38 1015.86 1016.29 1016.69 1017.04 1017.33 1017.55 1017.68 1017.74 1017.74 1017.73 1017.74 1017.81 1017.98 1018.24 1018.56 1018.92 1019.28 1019.59 1019.83 1020.01 1020.14 1020.23
1001.37 1000.96 1001.05 1001.61 1002.55 1003.75 1005.05 1006.33 1007.50 1008.52 1009.39 1010.14 1010.83 1011.50 1012.17 1012.85 1013.54 1014.20 1014.81 1015.37 1015.88 1016.33 1016.74 1017.11 1017.42 1017.67 1017.84 1017.94 1017.96 1017.94 1017.91 1017.92 1018.00 1018.19 1018.46 1018.81 1019.20 1019.57 1019.89 1020.15 1020.32 1020.44 1020.52
1003.11 1002.84 1002.98 1003.50 1004.32 1005.31 1006.37 1007.39 1008.33 1009.16 1009.89 1010.57 1011.23 1011.90 1012.60 1013.31 1014.01 1014.68 1015.28 1015.82 1016.29 1016.71 1017.08 1017.40 1017.68 1017.89 1018.03 1018.10 1018.11 1018.08 1018.05 1018.07 1018.17 1018.38 1018.68 1019.05 1019.45 1019.84 1020.17 1020.42 1020.58 1020.68 1020.74
1005.00 1004.84 1005.01 1005.46 1006.11 1006.88 1007.68 1008.44 1009.14 1009.77 1010.37 1010.98 1011.61 1012.29 1013.01 1013.74 1014.45 1015.10 1015.68 1016.18 1016.60 1016.97 1017.29 1017.57 1017.81 1018.00 1018.12 1018.18 1018.19 1018.16 1018.15 1018.18 1018.31 1018.54 1018.87 1019.26 1019.68 1020.08 1020.40 1020.64 1020.79 1020.86 1020.89
1006.83 1006.77 1006.95 1007.31 1007.80 1008.35 1008.89 1009.40 1009.88 1010.35 1010.84 1011.38 1012.00 1012.68 1013.41 1014.14 1014.84 1015.47 1016.01 1016.45 1016.82 1017.13 1017.41 1017.65 1017.87 1018.04 1018.15 1018.21 1018.22 1018.20 1018.20 1018.26 1018.40 1018.66 1019.01 1019.42 1019.85 1020.25 1020.58 1020.81 1020.94 1021.00 1021.00
1008.49 1008.51 1008.68 1008.96 1009.30 1009.64 1009.98 1010.28 1010.58 1010.92 1011.32 1011.81 1012.41 1013.09 1013.82 1014.55 1015.23 1015.81 1016.30 1016.69 1017.00 1017.26 1017.49 1017.71 1017.90 1018.06 1018.17 1018.23 1018.24 1018.23 1018.23 1018.30 1018.45 1018.72 1019.07 1019.50 1019.94 1020.34 1020.67 1020.90 1021.03 1021.07 1021.07
1009.91 1009.98 1010.14 1010.35 1010.57 1010.77 1010.94 1011.09 1011.27 1011.50 1011.84 1012.31 1012.89 1013.56 1014.28 1014.98 1015.61 1016.16 1016.58 1016.92 1017.18 1017.40 1017.60 1017.79 1017.97 1018.12 1018.22 1018.26 1018.26 1018.24 1018.24 1018.29 1018.43 1018.69 1019.04 1019.46 1019.90 1020.31 1020.64 1020.88 1021.02 1021.07 1021.07
1011.09 1011.20 1011.35 1011.51 1011.64 1011.74 1011.81 1011.87 1011.97 1012.15 1012.45 1012.89 1013.45 1014.09 1014.77 1015.43 1016.02 1016.51 1016.89 1017.18 1017.41 1017.60 1017.78 1017.96 1018.12 1018.24 1018.32 1018.34 1018.31 1018.26 1018.22 1018.24 1018.34 1018.57 1018.89 1019.29 1019.72 1020.13 1020.47 1020.73 1020.88 1020.96 1020.99
1012.06 1012.19 1012.34 1012.47 1012.55 1012.60 1012.62 1012.64 1012.71 1012.86 1013.14 1013.55 1014.07 1014.67 1015.30 1015.90 1016.43 1016.87 1017.21 1017.47 1017.68 1017.86 1018.03 1018.19 1018.33 1018.44 1018.48 1018.46 1018.38 1018.27 1018.18 1018.14 1018.19 1018.36 1018.64 1019.00 1019.41 1019.80 1020.15 1020.41 1020.60 1020.70 1020.77
1012.85 1013.00 1013.14 1013.25 1013.33 1013.36 1013.38 1013.40 1013.47 1013.62 1013.88 1014.25 1014.73 1015.26 1015.82 1016.35 1016.82 1017.21 1017.52 1017.77 1017.97 1018.15 1018.32 1018.47 1018.59 1018.66 1018.66 1018.58 1018.45 1018.28 1018.12 1018.01 1018.00 1018.11 1018.32 1018.63 1018.99 1019.35 1019.68 1019.95 1020.15 1020.29 1020.39
1013.48 1013.63 1013.77 1013.89 1013.98 1014.03 1014.07 1014.12 1014.21 1014.37 1014.61 1014.95 1015.36 1015.81 1016.28 1016.74 1017.14 1017.49 1017.78 1018.02 1018.23 1018.42 1018.59 1018.74 1018.84 1018.87 1018.83 1018.70 1018.51 1018.28 1018.07 1017.90 1017.82 1017.86 1018.00 1018.24 1018.53 1018.83 1019.12 1019.37 1019.57 1019.72 1019.85
1013.96 1014.10 1014.25 1014.37 1014.49 1014.58 1014.67 1014.76 1014.89 1015.05 1015.28 1015.57 1015.90 1016.27 1016.66 1017.03 1017.37 1017.68 1017.95 1018.20 1018.42 1018.62 1018.79 1018.93 1019.01 1019.02 1018.94 1018.78 1018.56 1018.30 1018.04 1017.84 1017.70 1017.67 1017.74 1017.89 1018.09 1018.31 1018.53 1018.73 1018.90 1019.04 1019.18
1014.25 1014.40 1014.54 1014.69 1014.83 1014.98 1015.12 1015.27 1015.43 1015.62 1015.83 1016.06 1016.33 1016.61 1016.91 1017.20 1017.48 1017.75 1018.01 1018.26 1018.49 1018.70 1018.88 1019.02 1019.09 1019.08 1018.99 1018.83 1018.60 1018.34 1018.08 1017.86 1017.70 1017.62 1017.61 1017.66 1017.75 1017.87 1017.98 1018.09 1018.20 1018.31 1018.44
1014.35 1014.50 1014.65 1014.82 1015.00 1015.20 1015.40 1015.61 1015.82 1016.02 1016.21 1016.41 1016.61 1016.82 1017.03 1017.25 1017.48 1017.72 1017.96 1018.21 1018.45 1018.67 1018.85 1018.99 1019.06 1019.05 1018.97 1018.83 1018.63 1018.41 1018.19 1017.99 1017.83 1017.71 1017.64 1017.59 1017.56 1017.54 1017.53 1017.53 1017.54 1017.59 1017.68
1014.25 1014.42 1014.58 1014.77 1015.00 1015.24 1015.50 1015.77 1016.02 1016.24 1016.44 1016.60 1016.75 1016.89 1017.03 1017.19 1017.38 1017.59 1017.82 1018.06 1018.30 1018.52 1018.71 1018.84 1018.92 1018.93 1018.88 1018.79 1018.66 1018.51 1018.36 1018.22 1018.08 1017.95 1017.82 1017.68 1017.53 1017.37 1017.21 1017.08 1016.99 1016.95 1016.99
1013.96 1014.16 1014.35 1014.57 1014.83 1015.12 1015.44 1015.75 1016.05 1016.30 1016.50 1016.65 1016.76 1016.85 1016.94 1017.06 1017.20 1017.39 1017.60 1017.84 1018.07 1018.29 1018.47 1018.60 1018.69 1018.73 1018.73 1018.70 1018.66 1018.61 1018.55 1018.48 1018.39 1018.27 1018.10 1017.88 1017.62 1017.33 1017.03 1016.76 1016.56 1016.43 1016.40
1013.51 1013.75 1013.99 1014.24 1014.54 1014.88 1015.24 1015.60 1015.93 1016.21 1016.42 1016.57 1016.66 1016.72 1016.78 1016.86 1016.98 1017.14 1017.35 1017.57 1017.79 1018.00 1018.17 1018.30 1018.39 1018.46 1018.50 1018.55 1018.60 1018.65 1018.69 1018.71 1018.68 1018.58 1018.39 1018.11 1017.76 1017.36 1016.95 1016.57 1016.26 1016.05 1015.97
1012.94 1013.25 1013.53 1013.83 1014.16 1014.54 1014.94 1015.35 1015.71 1016.02 1016.24 1016.39 1016.47 1016.52 1016.56 1016.62 1016.72 1016.87 1017.05 1017.26 1017.47 1017.66 1017.82 1017.94 1018.03 1018.12 1018.20 1018.30 1018.43 1018.57 1018.70 1018.80 1018.84 1018.77 1018.58 1018.28 1017.87 1017.40 1016.91 1016.45 1016.07 1015.80 1015.67
1012.29 1012.66 1013.00 1013.35 1013.72 1014.14 1014.58 1015.01 1015.41 1015.74 1015.98 1016.13 1016.20 1016.24 1016.27 1016.32 1016.41 1016.55 1016.72 1016.92 1017.12 1017.29 1017.43 1017.53 1017.62 1017.70 1017.81 1017.95 1018.12 1018.33 1018.53 1018.70 1018.79 1018.76 1018.60 1018.30 1017.88 1017.37 1016.85 1016.35 1015.94 1015.64 1015.49
Thickness
5791 5792 5786 5787 5787 5787 5787 5787 5787 5786 5786 5785 5785 5784 5783 5783 5782 5781 5779 5778 5777 5776 5774 5773 5772 5771 5769 5768 5767 5766 5765 5763 5762 5761 5759 5757 5756 5754 5753 5752 5752 5751 5747
5792 5791 5786 5786 5785 5786 5786 5786 5786 5785 5785 5784 5784 5783 5782 5781 5780 5779 5778 5777 5776 5774 5773 5771 5770 5769 5768 5766 5765 5764 5763 5762 5761 5759 5758 5756 5755 5753 5752 5752 5752 5750 5746
5793 5791 5787 5785 5784 5784 5784 5784 5784 5784 5784 5783 5783 5782 5781 5780 5779 5779 5777 5776 5774 5773 5772 5770 5769 5767 5766 5765 5764 5763 5761 5761 5760 5759 5758 5759 5755 5752 5751 5750 5749 5747 5745
5793 5792 5788 5784 5784 5783 5783 5783 5783 5783 5782 5782 5781 5780 5780 5779 5778 5777 5776 5775 5773 5772 5771 5769 5768 5766 5764 5763 5762 5761 5760 5759 5759 5759 5761 5760 5756 5752 5750 5749 5747 5746 5744
5794 5792 5786 5784 5783 5783 5782 5782 5782 5781 5781 5780 5780 5779 5778 5778 5777 5776 5776 5774 5773 5771 5770 5768 5766 5765 5763 5762 5761 5760 5759 5758 5758 5760 5761 5759 5756 5750 5749 5747 5746 5745 5744
5794 5792 5787 5784 5783 5782 5782 5781 5781 5780 5779 5779 5778 5777 5777 5776 5776 5775 5775 5773 5772 5770 5768 5767 5765 5764 5762 5762 5760 5759 5758 5758 5759 5760 5759 5757 5755 5749 5748 5746 5745 5744 5743
5794 5793 5788 5784 5783 5782 5781 5781 5780 5780 5779 5778 5777 5776 5775 5775 5774 5774 5773 5772 5770 5769 5767 5766 5764 5763 5762 5761 5759 5758 5758 5758 5760 5759 5757 5756 5753 5749 5747 5745 5744 5743 5742
5795 5793 5789 5784 5783 5781 5781 5780 5780 5779 5779 5778 5777 5775 5774 5773 5773 5772 5772 5771 5769 5768 5766 5764 5763 5762 5761 5760 5758 5757 5757 5757 5759 5759 5757 5755 5750 5748 5746 5745 5744 5743 5742
5795 5793 5791 5788 5784 5781 5780 5779 5779 5779 5778 5777 5776 5774 5773 5772 5771 5771 5770 5769 5769 5767 5766 5764 5763 5761 5760 5759 5758 5756 5756 5757 5760 5759 5758 5754 5749 5747 5746 5744 5743 5742 5741
5794 5793 5791 5789 5787 5785 5782 5779 5778 5778 5777 5776 5775 5773 5772 5771 5771 5770 5769 5768 5768 5766 5765 5763 5762 5761 5760 5758 5757 5756 5755 5756 5760 5759 5757 5753 5749 5747 5745 5744 5743 5742 5741
5789 5790 5791 5789 5787 5786 5784 5781 5779 5777 5776 5776 5775 5773 5773 5774 5774 5771 5769 5768 5767 5765 5764 5762 5761 5760 5758 5757 5756 5755 5756 5759 5760 5759 5756 5752 5749 5747 5745 5744 5742 5741 5740
5786 5788 5789 5788 5787 5786 5784 5782 5781 5780 5777 5776 5776 5775 5775 5774 5773 5772 5768 5767 5766 5765 5763 5762 5761 5759 5759 5760 5758 5756 5759 5759 5760 5758 5755 5751 5749 5747 5746 5744 5743 5741 5740
5787 5787 5788 5787 5785 5786 5784 5783 5782 5781 5778 5777 5775 5775 5774 5774 5774 5773 5771 5768 5767 5766 5766 5763 5763 5763 5763 5762 5761 5760 5760 5761 5759 5759 5756 5751 5748 5747 5745 5744 5743 5741 5740
5787 5787 5788 5787 5785 5784 5785 5784 5782 5782 5780 5779 5776 5776 5776 5775 5774 5773 5771 5770 5769 5767 5766 5766 5765 5764 5762 5761 5761 5761 5760 5760 5759 5758 5754 5750 5748 5746 5745 5744 5743 5741 5740
5786 5786 5786 5786 5785 5784 5783 5783 5784 5782 5782 5780 5777 5776 5775 5776 5774 5772 5770 5769 5769 5768 5767 5765 5765 5763 5762 5761 5761 5761 5760 5760 5759 5757 5754 5750 5748 5746 5745 5744 5743 5741 5740
5788 5788 5788 5787 5785 5783 5783 5782 5782 5782 5780 5780 5778 5776 5775 5775 5773 5771 5770 5769 5769 5768 5767 5765 5764 5764 5763 5762 5761 5760 5759 5759 5758 5756 5755 5752 5749 5747 5745 5744 5743 5741 5740
5790 5789 5788 5787 5786 5783 5782 5782 5783 5782 5781 5779 5777 5775 5774 5774 5773 5771 5771 5769 5769 5768 5766 5765 5764 5763 5762 5762 5761 5761 5759 5758 5757 5756 5755 5754 5752 5748 5746 5745 5743 5742 5741
5792 5789 5788 5789 5787 5784 5782 5781 5783 5782 5780 5779 5778 5776 5774 5773 5772 5771 5771 5770 5769 5768 5767 5765 5764 5762 5761 5761 5761 5761 5760 5758 5757 5756 5755 5754 5752 5752 5748 5745 5744 5743 5742
5793 5790 5788 5788 5786 5785 5783 5782 5781 5780 5779 5779 5778 5777 5774 5773 5772 5772 5771 5770 5769 5768 5767 5766 5764 5762 5760 5760 5761 5760 5760 5759 5758 5758 5756 5754 5752 5751 5750 5747 5744 5743 5742
5795 5792 5789 5787 5786 5785 5784 5782 5782 5781 5780 5780 5778 5776 5774 5773 5772 5772 5771 5769 5769 5767 5765 5764 5762 5761 5760 5760 5762 5760 5759 5760 5759 5758 5756 5755 5753 5751 5750 5749 5746 5745 5743
5796 5793 5790 5788 5786 5785 5783 5782 5781 5780 5780 5779 5778 5776 5774 5773 5773 5771 5772 5769 5768 5767 5765 5765 5763 5761 5760 5760 5758 5756 5759 5760 5758 5757 5756 5755 5754 5752 5749 5748 5747 5746 5745
5798 5794 5792 5789 5788 5786 5785 5783 5782 5781 5781 5780 5779 5776 5775 5774 5773 5773 5771 5770 5768 5766 5764 5763 5761 5761 5761 5760 5756 5752 5750 5752 5754 5758 5755 5754 5753 5752 5750 5749 5747 5745 5745
5801 5798 5796 5792 5790 5787 5787 5785 5783 5781 5780 5779 5777 5776 5775 5774 5772 5771 5771 5770 5769 5768 5765 5762 5762 5759 5757 5759 5759 5753 5748 5746 5749 5753 5753 5754 5752 5751 5751 5750 5748 5746 5744
5805 5803 5798 5794 5791 5789 5787 5786 5783 5779 5777 5777 5777 5777 5775 5773 5772 5771 5770 5769 5768 5768 5765 5764 5763 5760 5757 5756 5756 5755 5754 5751 5745 5745 5750 5752 5751 5749 5749 5750 5749 5746 5744
5810 5807 5802 5797 5793 5790 5788 5785 5782 5781 5780 5780 5778 5775 5774 5774 5772 5771 5769 5768 5767 5766 5765 5763 5761 5759 5759 5756 5755 5754 5752 5751 5750 5744 5742 5745 5748 5750 5749 5748 5747 5746 5744
5813 5810 5805 5798 5794 5792 5789 5787 5783 5780 5779 5777 5775 5774 5774 5775 5773 5771 5770 5768 5766 5766 5763 5761 5759 5758 5757 5755 5754 5754 5752 5749 5747 5745 5742 5742 5743 5746 5747 5746 5745 5744 5743